Date,TemperatureHighF,TemperatureAvgF,TemperatureLowF,DewpointHighF,DewpointAvgF,DewpointLowF,HumidityHigh,HumidityAvg,HumidityLow,PressureMaxIn,PressureMinIn,WindSpeedMaxMPH,WindSpeedAvgMPH,GustSpeedMaxMPH,PrecipitationSumIn
2013-2-1,50,30,12,34,24,10,95,79,40,30.38,30.18,26,4,26,0.00
2013-2-2,49,32,14,28,21,10,90,67,28,30.42,30.35,25,5,25,0.00
2013-2-3,56,32,8,24,14,5,94,57,19,30.37,30.00,26,3,26,0.00
2013-2-4,54,37,15,22,17,9,83,49,21,30.12,29.91,23,6,23,0.00
2013-2-5,55,40,23,24,20,15,76,47,26,30.13,29.89,21,3,23,0.00
2013-2-6,54,42,30,31,24,17,90,51,25,30.16,29.83,21,4,21,0.00
2013-2-7,51,33,18,26,19,10,95,62,20,30.28,30.15,15,2,15,0.00
2013-2-8,55,33,14,25,18,8,89,56,24,30.17,29.83,18,3,18,0.00
2013-2-9,36,25,15,26,20,12,92,83,64,29.91,29.72,17,6,18,0.00
2013-2-10,31,26,12,25,19,6,93,77,62,30.27,29.75,41,17,42,0.00
2013-2-11,32,14,1,14,6,-3,85,72,43,30.40,30.27,11,2,12,0.00
2013-2-12,40,24,10,18,11,2,74,58,37,30.34,30.22,22,5,22,0.00
2013-2-13,47,36,23,30,22,15,79,58,38,30.22,29.99,34,10,34,0.00
2013-2-14,33,25,8,28,18,4,91,76,52,30.53,30.11,31,8,33,0.00
2013-2-15,29,20,9,24,15,5,92,82,66,30.59,30.47,18,3,20,0.00
2013-2-16,53,38,18,28,22,14,89,55,30,30.47,30.01,27,8,27,0.00
2013-2-17,61,40,16,27,16,6,90,44,13,30.01,29.62,29,8,30,0.00
2013-2-18,37,27,0,27,19,2,93,72,46,30.32,29.87,24,8,25,0.00
2013-2-19,43,21,-1,26,13,-5,91,73,42,30.39,30.16,23,6,24,0.01
2013-2-20,26,20,15,20,15,9,90,80,68,30.17,29.97,23,9,24,0.00
2013-2-21,24,18,12,18,15,10,91,86,71,30.16,30.06,13,3,13,0.00
2013-2-22,37,24,14,27,17,10,92,77,52,30.21,30.06,14,2,14,0.06
2013-2-23,49,32,13,28,19,6,82,62,35,30.06,29.77,18,3,18,0.03
2013-2-24,34,29,0,29,26,22,94,88,78,30.27,29.88,18,6,18,0.00
2013-2-25,36,18,0,22,11,-4,91,75,52,30.29,30.10,11,2,11,0.01
2013-2-26,38,25,-1,30,19,-4,92,79,50,30.34,30.09,29,10,29,0.00
2013-2-27,36,27,15,25,18,9,85,71,56,30.43,30.33,23,8,25,0.00
2013-2-28,40,28,0,25,18,8,80,65,50,30.46,30.34,19,5,19,0.00